Location: Bothwell
(42.3833°S, 147.0000°E)
Time: 06:25:56
(UTC+11:00)

CUTE 1.7 + AOD 2 - Visible Passes

Search period start: 30 January 2023 00:00
Search period end: 09 February 2023 00:00
Orbit: 587 x 604 km, 97.7° (Epoch: 29 January)

Date Brightness Start Highest point End Pass type
(mag) Time Alt. Az. Time Alt. Az. Time Alt. Az.
30 Jan ? 04:03:16 33° NNE 04:05:07 89° WNW 04:09:23 10° SSW visible
31 Jan ? 02:38:18 10° E 02:39:48 12° ESE 02:41:18 10° SE visible
31 Jan ? 04:13:11 36° N 04:14:50 70° WNW 04:19:04 10° SSW visible
01 Feb ? 02:47:03 10° E 02:49:22 15° ESE 02:51:43 10° SSE visible
01 Feb ? 04:23:06 35° NNW 04:24:33 53° W 04:28:43 10° SSW visible
02 Feb ? 02:56:21 11° ENE 02:58:57 18° ESE 03:01:51 10° SSE visible
02 Feb ? 04:33:01 32° NW 04:34:16 41° W 04:38:18 10° SSW visible
03 Feb ? 03:06:15 15° ENE 03:08:33 22° ESE 03:11:52 10° SSE visible
03 Feb ? 04:42:55 28° NW 04:44:00 32° W 04:47:50 10° SSW visible
04 Feb ? 03:16:09 19° ENE 03:18:09 28° ESE 03:21:47 10° S visible
04 Feb ? 04:52:49 23° WNW 04:53:44 25° W 04:57:17 10° SW visible
05 Feb ? 03:26:03 25° ENE 03:27:45 35° ESE 03:31:38 10° S visible
05 Feb ? 05:02:42 19° WNW 05:03:29 20° W 05:06:38 10° SW visible
06 Feb ? 03:35:56 32° ENE 03:37:22 44° ESE 03:41:26 10° S visible
06 Feb ? 05:12:35 15° WNW 05:13:14 16° W 05:15:51 10° SW visible
07 Feb ? 03:45:48 41° NE 03:46:59 57° ESE 03:51:11 10° S visible
07 Feb ? 05:22:28 12° W 05:22:59 12° W 05:24:48 10° WSW visible
08 Feb ? 03:55:41 52° NE 03:56:36 74° ESE 04:00:53 10° S visible
